sat.trackr.live / text

‹ back to catalog

STARLINK-4342

NORAD 53070 · 2022-077AD

PAYLOAD ACTIVE UNKNOWN

§ Identity

Operator
Country
US
Launch date
2022-07-11
Launch site
AFWTR
Launch vehicle
Mass (kg)
RCS (m²)

Purposes: comms

External: N2YO · Heavens-Above · Gunter

§ Orbital elements

Epoch: 2026-05-25T00:33:23.366304Z

Period
95.64 min
Inclination
97.4477°
Eccentricity
0.0001347
Mean motion
15.05599866 rev/d
Perigee alt
548.7 km
Apogee alt
550.6 km
Semi-major
6,927.8 km
B*
6.1056e-4
RAAN
326.1694°
Arg perigee
90.2834°
Mean anomaly
269.8547°
Rev number
21,247

§ Raw data

STARLINK-43421 53070U 22077AD  26145.02318711  .00008750  00000+0  61056-3 0  99942 53070  97.4477 326.1694 0001347  90.2834 269.8547 15.05599866212478

JSON: /api/v1/satellites/53070 · /tle

For live sub-satellite position, see the globe view (requires WebGL).

§ Visibility from observer

Set your observer location to see the next 7 days of passes ≥ 10°. The values pass through the URL so the page stays shareable.

No JS? Fill the form by hand. The geolocation button needs JavaScript.